Terug naar catalogus

COSMOS 2251 DEB

ActiefLEO
NORAD 47067·DEBRIS·🇷🇺 Russia

Gelanceerd Jun 16, 1993 vanaf Plesetsk Cosmodrome

Loading…

Volgende Passages (komende 24 uur)

TLE

VersSource: Space-Track

Epoch: Sep 14, 2026, 06:29 UTC

1 47067U 93036BXX 26257.27042634  .00011602  00000-0  33912-2 0  9995
2 47067  74.2052   3.8327 0162576 138.9067 249.2961 14.36618071740067

Volg COSMOS 2251 DEB in realtime met AllMySat

Download on the App Store